Location: Breux
(46.3269°N, 3.2993°E)
Time: 00:08:17
(UTC+00:00)

H-2A R/B - Pass Details

Date: 09 April 2020
Orbit: 734 x 836 km, 98.2° (Epoch: 02 June)

Event Time Altitude Azimuth Distance (km) Brightness Sun altitude
Rises 19:56:22 0° 188° (S) 3,287 5.1 -15.2°
Reaches altitude 10° 19:58:53 10° 196° (SSW) 2,346 4.4 -15.6°
Maximum altitude 20:03:38 37° 263° (W) 1,198 3.5 -16.3°
Drops below altitude 10° 20:08:19 10° 330° (NNW) 2,301 5.4 -17.0°
Sets 20:10:46 0° 339° (NNW) 3,217 6.1 -17.3°
